P/2019 V2 ( Groeller )

Japanese version
Home page
Updated on April 17, 2020

---------------------------------------------------------------------

* Profile

Discovery Date November 3, 2019
Magnitude 20.7 mag
Discoverer Hannes Groeller (Mount Lemmon Survey)

* Pictures

* Orbital Elements

Epoch 2020 Nov. 7.0 TT = JDT 2459160.5
T 2020 Oct. 20.28306 TT                                 Rudenko
q   5.0204305            (2000.0)            P               Q
n   0.04781410     Peri.  336.05757     -0.96562559     -0.25788028
a   7.5179376      Node   189.18085     +0.25901881     -0.94405881
e   0.3322064      Incl.   11.80236     +0.02182833     -0.20554981
P  20.6
From 61 observations 2019 Nov. 3-2020 Mar. 15, mean residual 0".5.

* Magnitudes Graph

        m1 = 9.5 + 5 log d + 10.0 log r

---------------------------------------------------------------------

The orbital elements are published on M.P.E.C. 2020-G91.
The magnitudes graphs are made with Comet for Windows.

---------------------------------------------------------------------

Copyright(C) Seiichi Yoshida (comet@aerith.net). All rights reserved.